TimeGMT,TemperatureF,Dew PointF,Humidity,Sea Level PressureIn,VisibilityMPH,Wind Direction,Wind SpeedMPH,Gust SpeedMPH,PrecipitationIn,Events,Conditions,WindDirDegrees,DateUTC
12:20 AM,39.2,35.6,87,29.68,3.1,East,6.9,-,N/A,,Haze,80,2013-03-06 00:20:00
12:50 AM,37.4,35.6,93,29.68,-9999.0,East,5.8,-,N/A,,Haze,80,2013-03-06 00:50:00
1:20 AM,37.4,33.8,87,29.71,-9999.0,ESE,6.9,-,N/A,,Haze,120,2013-03-06 01:20:00
1:50 AM,37.4,33.8,87,29.71,3.1,SE,4.6,-,N/A,,Haze,130,2013-03-06 01:50:00
2:20 AM,37.4,33.8,87,29.71,3.1,East,4.6,-,N/A,,Haze,100,2013-03-06 02:20:00
2:50 AM,37.4,33.8,87,29.68,-9999.0,East,4.6,-,N/A,,Haze,100,2013-03-06 02:50:00
3:20 AM,37.4,33.8,87,29.68,-9999.0,East,6.9,-,N/A,,Haze,100,2013-03-06 03:20:00
3:50 AM,37.4,33.8,87,29.68,2.5,ESE,6.9,-,N/A,,Haze,110,2013-03-06 03:50:00
4:20 AM,37.4,33.8,87,29.68,-9999.0,ESE,5.8,-,N/A,,Haze,110,2013-03-06 04:20:00
4:50 AM,37.4,33.8,87,29.68,2.5,East,8.1,-,N/A,,Haze,100,2013-03-06 04:50:00
5:20 AM,39.2,33.8,81,29.68,-9999.0,East,10.4,-,N/A,,Haze,100,2013-03-06 05:20:00
5:50 AM,39.2,33.8,81,29.68,3.1,East,11.5,-,N/A,,Haze,80,2013-03-06 05:50:00
6:20 AM,39.2,33.8,81,29.68,3.1,East,8.1,-,N/A,,Haze,90,2013-03-06 06:20:00
6:50 AM,39.2,33.8,81,29.68,3.7,ENE,13.8,-,N/A,,Overcast,70,2013-03-06 06:50:00
7:20 AM,39.2,33.8,81,29.71,4.3,East,13.8,-,N/A,,Overcast,80,2013-03-06 07:20:00
7:50 AM,39.2,33.8,81,29.71,5.6,East,11.5,-,N/A,,Overcast,90,2013-03-06 07:50:00
8:20 AM,39.2,33.8,81,29.71,6.2,East,11.5,-,N/A,,Overcast,80,2013-03-06 08:20:00
8:50 AM,39.2,33.8,81,29.71,5.6,East,10.4,-,N/A,,Overcast,90,2013-03-06 08:50:00
9:20 AM,39.2,33.8,81,29.71,5.6,East,8.1,-,N/A,,Overcast,100,2013-03-06 09:20:00
9:50 AM,39.2,35.6,87,29.71,5.0,East,9.2,-,N/A,,Overcast,80,2013-03-06 09:50:00
10:20 AM,41.0,35.6,81,29.71,4.3,ENE,10.4,-,N/A,,Overcast,70,2013-03-06 10:20:00
10:50 AM,41.0,37.4,87,29.71,3.1,ENE,13.8,-,N/A,,Haze,70,2013-03-06 10:50:00
11:20 AM,41.0,37.4,87,29.71,2.8,ENE,15.0,-,N/A,,Haze,70,2013-03-06 11:20:00
11:50 AM,39.2,37.4,93,29.74,-9999.0,ENE,13.8,-,N/A,,Haze,60,2013-03-06 11:50:00
12:20 PM,39.2,37.4,93,29.74,2.2,ENE,13.8,-,N/A,,Haze,70,2013-03-06 12:20:00
12:50 PM,41.0,37.4,87,29.71,-9999.0,ENE,12.7,-,N/A,,Haze,70,2013-03-06 12:50:00
1:20 PM,41.0,37.4,87,29.71,3.1,ENE,12.7,-,N/A,,Haze,70,2013-03-06 13:20:00
1:50 PM,41.0,37.4,87,29.71,-9999.0,ENE,11.5,-,N/A,,Haze,60,2013-03-06 13:50:00
2:20 PM,41.0,37.4,87,29.68,2.8,ENE,12.7,-,N/A,,Haze,60,2013-03-06 14:20:00
2:50 PM,41.0,37.4,87,29.68,2.5,ENE,11.5,-,N/A,,Haze,60,2013-03-06 14:50:00
3:20 PM,41.0,37.4,87,29.68,-9999.0,ENE,11.5,-,N/A,,Haze,70,2013-03-06 15:20:00
3:50 PM,41.0,37.4,87,29.68,-9999.0,ENE,12.7,-,N/A,,Haze,70,2013-03-06 15:50:00
4:20 PM,41.0,37.4,87,29.68,1.7,ENE,12.7,-,N/A,,Haze,70,2013-03-06 16:20:00
4:50 PM,41.0,39.2,93,29.68,1.6,ENE,11.5,-,N/A,,Haze,70,2013-03-06 16:50:00
5:20 PM,41.0,37.4,87,29.68,2.2,East,11.5,-,N/A,,Haze,80,2013-03-06 17:20:00
5:50 PM,41.0,37.4,87,29.68,2.2,ENE,11.5,-,N/A,,Haze,70,2013-03-06 17:50:00
6:20 PM,41.0,37.4,87,29.68,3.1,ENE,12.7,-,N/A,,Haze,70,2013-03-06 18:20:00
6:50 PM,41.0,37.4,87,29.71,3.1,East,12.7,-,N/A,,Haze,90,2013-03-06 18:50:00
7:20 PM,39.2,37.4,93,29.71,-9999.0,ENE,11.5,-,N/A,,Haze,70,2013-03-06 19:20:00
7:50 PM,39.2,39.2,100,29.71,1.2,ENE,11.5,-,N/A,,Haze,70,2013-03-06 19:50:00
8:20 PM,39.2,39.2,100,29.71,1.2,ENE,12.7,-,N/A,,Haze,70,2013-03-06 20:20:00
8:50 PM,39.2,37.4,93,29.71,1.6,ENE,12.7,-,N/A,,Haze,70,2013-03-06 20:50:00
9:20 PM,39.2,39.2,100,29.71,1.3,East,10.4,-,N/A,,Light Drizzle,80,2013-03-06 21:20:00
9:50 PM,39.2,39.2,100,29.68,1.9,ENE,12.7,-,N/A,,Light Drizzle,70,2013-03-06 21:50:00
10:20 PM,39.2,39.2,100,29.68,2.5,ENE,13.8,-,N/A,,Light Drizzle,70,2013-03-06 22:20:00
10:50 PM,41.0,37.4,87,29.68,2.5,ENE,11.5,-,N/A,,Light Drizzle,70,2013-03-06 22:50:00
11:20 PM,41.0,39.2,93,29.68,-9999.0,ENE,11.5,-,N/A,,Light Drizzle,70,2013-03-06 23:20:00
11:50 PM,39.2,39.2,100,29.68,2.8,ENE,12.7,-,N/A,Rain,Light Rain,70,2013-03-06 23:50:00